Regional Weather Roundup
Issued by NWS Upton, NY

Current Version | Previous Version | Text Only | Print | Product List | Glossary On
Versions: 1 2 3 4 5 6 7 8 9 10 11 12 13 14 15 16 17 18 19 20 21 22 23 24 25 26 27 28
000
ASUS41 KOKX 241905
RWROKX

REGIONAL WEATHER ROUNDUP
NATIONAL WEATHER SERVICE NEW YORK NY
300 PM EDT THU APR 24 2014

NOTE: "FAIR" INDICATES FEW OR NO CLOUDS BELOW 12,000 FEET WITH NO
SIGNIFICANT WEATHER AND/OR OBSTRUCTIONS TO VISIBILITY.

NYZ071-072-176-178-NJZ106-104-242000-
NEW YORK CITY METRO AREA


CITY           SKY/WX    TMP DP  RH WIND       PRES   REMARKS
CENTRAL PARK   SUNNY     61  13  15 VRB7G18   29.90S
LAGUARDIA APRT MOSUNNY   58  15  18 NW18G33   29.87S
KENNEDY INTL   MOSUNNY   63  10  12 NW21G37   29.86F
NEWARK/LIBERTY MOSUNNY   63  12  13 N28       29.88F
TETERBORO      SUNNY     62  16  16 NW17G29   29.88R
$$

NYZ177-179-078>081-242000-
LONG ISLAND NEW YORK

CITY           SKY/WX    TMP DP  RH WIND       PRES   REMARKS
FARMINGDALE    SUNNY     59  12  15 NW16G30   29.85S
ISLIP          MOSUNNY   61  10  13 NW30G39   29.81S
SHIRLEY        MOSUNNY   60  14  16 NW24G32   29.83F
WESTHAMPTON    SUNNY     59  15  18 NW24G38   29.82R
MONTAUK POINT    N/A    N/A N/A N/A MISG      29.78R
$$

NYZ052-065-067-242000-
HUDSON VALLEY

CITY           SKY/WX    TMP DP  RH WIND       PRES   REMARKS
WHITE PLAINS   SUNNY     59  14  17 NW24G33   29.84F
NEWBURGH       SUNNY     59  18  20 NW23G35   29.89R
MONTGOMERY     SUNNY     59  13  16 NW16G32   29.87S
POUGHKEEPSIE   SUNNY     61  16  17 N20G30    29.86S
ALBANY         MOSUNNY   58  12  16 NW23G32   29.89R
$$

NJZ001-105-106-008-010-013-015-019>022-104-242000-
NEW JERSEY

CITY           SKY/WX    TMP DP  RH WIND       PRES   REMARKS
NEWARK/LIBERTY MOSUNNY   63  12  13 N28       29.88F
TETERBORO      SUNNY     62  16  16 NW17G29   29.88R
CALDWELL       SUNNY     59  13  16 NW21G32   29.90S
MORRISTOWN     SUNNY     59  14  17 NW17G28   29.92S
SOMERVILLE     SUNNY     60  14  16 NW22G29   29.91S
LINDEN         FAIR      62  17  17 N20G33    29.91F
SUSSEX         SUNNY     59  15  18 NW14G26   29.92F
ANDOVER          N/A     57  16  20 N14G25    29.92F
TRENTON        SUNNY     61  13  15 NW22G31   29.94S
MILLVILLE      SUNNY     60  21  22 W17G25    29.98F
ATLANTIC CITY  SUNNY     60  17  18 NW22G30   29.95F
WRIGHTSTOWN    SUNNY     61  18  19 NW24G31   29.92F
TOMS RIVER     SUNNY     61  18  18 W29       29.91F
BELMAR         SUNNY     61  18  18 W16G29    29.90F
$$

PAZ047>061-062-071-242000-
EASTERN PENNSYLVANIA

CITY           SKY/WX    TMP DP  RH WIND       PRES   REMARKS
PHILADELPHIA   SUNNY     60  13  15 W17G29    29.99S
ALLENTOWN      SUNNY     60  15  17 NW21G28   29.97S
SCRANTON       SUNNY     54  16  22 NW22G32   29.99F
$$

CTZ002-004>006-009-010-012-RIZ004-006-007-MAZ004-011-015-242000-
SOUTHERN NEW ENGLAND
 IN CT

CITY           SKY/WX    TMP DP  RH WIND       PRES   REMARKS
BRADLEY INTL   MOSUNNY   59  16  18 NW23G32   29.79S
HARTFORD       SUNNY     58  17  20 NW23G31   29.80S
DANBURY        SUNNY     57  15  19 NW14G29   29.86S
WTRBRY/OXFORD  SUNNY     54  18  24 N21G32    29.86S
BRIDGEPORT     MOSUNNY   60   9  13 NW26G39   29.82S
MERIDEN        SUNNY     58  12  16 NW20G38   29.81S
NEW HAVEN      MOSUNNY   59  14  17 NW17G31   29.82S
CHESTER        FAIR      55  16  21 NW14G26   29.79R
GROTON         SUNNY     61  21  21 NW21G30   29.74F
WILLIMANTIC    SUNNY     58  19  22 N20G33    29.76S

 IN RI

CITY           SKY/WX    TMP DP  RH WIND       PRES   REMARKS
PROVIDENCE     MOSUNNY   58  20  22 NW23G37   29.71S
BLOCK ISLAND   SUNNY     55  28  35 NW13G22   29.72F
WESTERLY       SUNNY     59  20  22 NW16G28   29.73F

 IN MA

CITY           SKY/WX    TMP DP  RH WIND       PRES   REMARKS
BOSTON         MOSUNNY   58  22  24 NW24G36   29.68S
WORCESTER      SUNNY     52  19  27 NW20G36   29.73R
WESTFIELD      SUNNY     59  17  19 NW29G41   29.79S
PROVINCETOWN   SUNNY     52  34  50 MISG      29.66S
NANTUCKET      SUNNY     55  29  36 NW21G26   29.65S
$$

ANZ330-335-338-340-345-350-353-355-242000-
COASTAL MARINE OBSERVATIONS


STATION/POSITION TIME  SKY/WX   TEMP    WIND        PRES    VSBY  WAVE
                                AIR SEA DIR/SP/G                  HT/PER
                 (UTC)          (F)     (DEG/KT/KT) (MB)    (MI)  (FT/S)
NY HARB ENTRANCE 1900            50 45  VRB 12/ 14  1011.5
4S FIRE IS       1800               45                N/A           3/ 4
23SW MTP         1900            48 44  300/ 17/ 21 1008.0          4/ 5
HUDSON CANYON    1800            47 45  290/ 21/ 25 1011.0          8/ 7
EXECUTION ROCKS  1900            55 46  330/ 17/ 25   N/A
WESTERN LI SOUND 1900            54     300/ 16/ 21   N/A           1/ 3
CENTRAL LI SOUND 1800            49 44  300/ 17/ 23   N/A           3/ 4
EASTERN LI SOUND NOT AVBL
ROBBINS REEF     1800            56     300/ 27/ 35   N/A
$$


>>>>>>>>>>>>>>>>>>>>>>>>>>>> KEY <<<<<<<<<<<<<<<<<<<<<<<<<<<
>                                                          <
>     SKY/WX - SKY CONDITION/PRESENT WEATHER               <
>     TMP    - TEMPERATURE IN FAHRENHEIT                   <
>     DP     - DEWPOINT IN FAHRENHEIT                      <
>     RH     - RELATIVE HUMIDITY IN PERCENT                <
>     WIND   - DIRECTION AND SPEED IN MPH                  <
>     PRES   - MEAN SEA LEVEL PRESSURE IN INCHES OF HG     <
>     WCI    - WIND CHILL INDEX                            <
>     VSB    - VISIBILITY IN MILES                         <
>     HX     - HEAT INDEX                                  <
>     TC     - TEMPERATURE IN CELSIUS                      <
>     VRB    - VARIABLE WIND DIRECTION                     <
>                                                          <
>>>>>>>>>>>>>>>>>>>>>>>>>>>> KEY <<<<<<<<<<<<<<<<<<<<<<<<<<<





USA.gov is the U.S. government's official web portal to all federal, state and local government web resources and services.